Location: Ladd Observatory
(41.8387°N, 71.3996°W)
Time: 00:07:01
(UTC-05:00)

ISS - Visible Passes

Search period start: 23 February 2017 00:00
Search period end: 05 March 2017 00:00
Orbit: 399 x 408 km, 51.6° (Epoch: 23 February)

Date Brightness Start Highest point End Pass type
(mag) Time Alt. Az. Time Alt. Az. Time Alt. Az.
28 Feb -0.3 05:23:50 10° SSE 05:25:29 13° SE 05:27:09 10° E visible
02 Mar -1.5 05:13:35 10° SSW 05:16:30 30° SE 05:19:27 10° ENE visible
03 Mar -0.7 04:22:49 14° SSE 04:24:05 16° SE 04:26:13 10° E visible
04 Mar -3.2 05:05:28 20° SW 05:07:36 73° SE 05:10:54 10° ENE visible
